Flag for Canada Weather past 2 weeks in Cornwall, Ontario, Canada

Now
83 °F

Warm.


Feels Like: 84 °F
Forecast: 64 / 87 °F
Wind: 10 mph from West

Location: St Anicet

Current Time: Jul 22, 2014 at 3:17:04 PM

Latest Report: Jul 22, 2014 at 12:00 PM


Visibility: N/A

Pressure: 30.04 "Hg

Humidity: 53%

Dew point: 64 °F

Location of CornwallLocation

Historic Weather in Cornwall — Graph

°F

Cornwall temperature yesterday

Maximum temperature yesterday: 85 °F (at 3:00 PM)
Minimum temperature yesterday: 64 °F (at 4:00 AM)
Average temperature yesterday: 74 °F

Past Weeks' High & Low Weather Summary

 TemperatureHumidityPressure
High89 °F (Jul 8, 4:00 PM)100% (Jul 16, 12:00 AM)30.26 "Hg (Jul 16, 12:00 AM)
Low51 °F (Jul 19, 5:00 AM)37% (Jul 18, 4:00 PM)29.37 "Hg (Jul 8, 9:00 PM)
Average69 °F75%29.95 "Hg
* Reported Jul 7 12:00 Noon — Jul 22 12:00 Noon, Cornwall, Weather by CustomWeather, © 2014

Note: Actual official high and low records may vary slightly from our data, if they occured in-between our weather recording intervals... More about our weather records

Advertising

Cornwall weather history for previous 24 hours

 ConditionsComfort  
Time TempWeatherWind HumidityBarometerVisibility
12:00 PM
Jul 22
83 °FWarm.10 mph53%30.04 "HgN/A
11:00 AM81 °FWarm.7 mph63%30.06 "HgN/A
10:00 AM78 °FWarm.8 mph67%30.07 "HgN/A
9:00 AM74 °FMild.12 mph74%30.11 "HgN/A
8:00 AM73 °FMild.9 mph77%30.09 "HgN/A
7:00 AM67 °FMild.6 mph85%30.07 "HgN/A
6:00 AM67 °FMild.3 mph84%30.07 "HgN/A
5:00 AM67 °FMild.5 mph87%30.07 "HgN/A
4:00 AM67 °FMild.3 mph88%30.06 "HgN/A
3:00 AM68 °FMild.3 mph88%30.06 "HgN/A
2:00 AM69 °FMild.5 mph88%30.07 "HgN/A
1:00 AM69 °FMild.2 mph89%30.07 "HgN/A
12:00 AM70 °FMild.3 mph89%30.07 "HgN/A
11:00 PM
Jul 21
69 °FMild.2 mph95%30.08 "HgN/A
10:00 PM70 °FMild.1 mph93%30.08 "HgN/A
9:00 PM71 °FMild.1 mph88%30.07 "HgN/A
8:00 PM80 °FWarm.2 mph74%30.05 "HgN/A
7:00 PM83 °FWarm.3 mph60%30.06 "HgN/A
6:00 PM82 °FWarm.3 mph62%30.06 "HgN/A
5:00 PM85 °FWarm.5 mph52%30.07 "HgN/A
4:00 PM85 °FWarm.5 mph56%30.07 "HgN/A
3:00 PM85 °FWarm.5 mph55%30.08 "HgN/A
Weather by CustomWeather, © 2014

See weather overviewHow to use our weather pages